Location: Cisewo
(53.3833°N, 14.9000°E)
Time: 12:11:42
(UTC+00:00)

Timation 1 Rocket - Pass Details

Date: 18 April 2021
Orbit: 900 x 907 km, 70.0° (Epoch: 16 May)

Event Time Altitude Azimuth Distance (km) Brightness Sun altitude
Exits shadow 21:33:37 37° 205° (SSW) 1,378 4.9 -22.9°
Maximum altitude 21:36:09 83° 122° (ESE) 915 4.2 -23.1°
Drops below altitude 10° 21:42:09 10° 35° (NE) 2,588 7.1 -23.4°
Sets 21:44:39 0° 35° (NE) 3,533 7.9 -23.5°
